Weather Roundup
Issued by NWS

Home | Current Version | Previous Version | Text Only | Print | Product List | Glossary On
Versions: 1 2 3 4 5 6 7 8 9 10 11 12 13 14 15 16 17 18 19 20 21 22 23 24 25 26 27 28 29 30 31 32 33 34 35 36 37 38 39 40 41 42 43 44 45 46 47 48 49 50
000
NZUS93 KARX 121510
HRRWXR

CURRENT HOURLY OBSERVATIONS ACROSS
MUCH OF THE UPPER MISSISSIPPI VALLEY
NATIONAL WEATHER SERVICE LA CROSSE WI
1000 AM CDT SAT JUL 12 2014


...SOUTHEAST MINNESOTA...


CITY           SKY/WX    TMP DP  RH WIND       PRES   REMARKS
ROCHESTER      CLOUDY    73  69  87 NW6       30.02F FOG
ROCHESTER/MAYO FAIR      72  69  89 W3        30.01F
WINONA         CLOUDY    73  70  88 CALM      29.99F
AUSTIN         LGT RAIN  72  70  94 E7        29.97F
ALBERT LEA     LGT RAIN  72  72 100 CALM      30.00S
DODGE CENTER   LGT RAIN  72  70  94 N5        30.00F
PRESTON        CLOUDY    72  70  94 N7        30.00F FOG
OWATONNA       RAIN      72  70  94 CALM      30.01S
FARIBAULT      CLOUDY    75  68  78 CALM      29.99F HAZE
$$

...ELSEWHERE IN MINNESOTA...


CITY           SKY/WX    TMP DP  RH WIND       PRES   REMARKS
MINNEAPOLIS    CLOUDY    73  70  90 CALM      29.98S FOG
INTNL FALLS    MOSUNNY   68  51  54 CALM      30.01F
DULUTH         MOSUNNY   73  57  57 VRB5      30.02S
RED WING       CLOUDY    73  70  88 CALM      29.98S FOG
REDWOOD FALLS  TSTM      68  64  87 NW10      30.00R
MANKATO        CLOUDY    72  66  83 CALM      29.99F
WORTHINGTON    CLOUDY    72  68  88 SW6       30.04R
FAIRMONT       CLOUDY    72  68  88 E3        30.01S
$$

...SOUTHWEST WISCONSIN...


CITY           SKY/WX    TMP DP  RH WIND       PRES   REMARKS
LA CROSSE      CLOUDY    74  68  81 CALM      29.99F
PRAIRIE DU CHI CLOUDY    75  69  81 CALM      29.97F
BOSCOBEL       CLOUDY    73  67  81 NE3       29.98F
LONE ROCK      CLOUDY    77  68  73 NE6       29.97F
PLATTEVILLE    CLOUDY    73  70  91 NE6       29.98F
FORT MC COY    CLOUDY    73  67  83 CALM      30.01F
VIROQUA        PTSUNNY   72  71  98 N6        30.01F
WIS DELLS      CLOUDY    72  65  77 CALM      30.00F
$$

...ELSEWHERE IN WISCONSIN...


CITY           SKY/WX    TMP DP  RH WIND       PRES   REMARKS
MILWAUKEE      CLOUDY    74  65  73 SW7       30.03F
MADISON        CLOUDY    77  67  71 N5        29.99F
GREEN BAY      CLOUDY    74  66  76 S3        30.01F
EAU CLAIRE     CLOUDY    73  69  87 W3        29.99F
BLACK RVR FLS  FAIR      72  69  90 CALM      29.99F
MEDFORD        CLOUDY    70  67  90 CALM      30.02F
WAUSAU         CLOUDY    73  67  81 W3        30.00F
WIS RAPIDS     CLOUDY    73  67  81 SW3       30.01F
MARSHFIELD     CLOUDY    72  68  87 NW5       30.01F
RICE LAKE      CLOUDY    70  69  95 CALM      30.01F FOG
$$

...NORTHEAST IOWA...


CITY           SKY/WX    TMP DP  RH WIND       PRES   REMARKS
WATERLOO       PTSUNNY   75  71  87 W3        30.00R
DUBUQUE        CLOUDY    74  71  91 N5        29.99S
DECORAH          N/A    N/A N/A N/A MISG        N/A
MASON CITY     CLOUDY    73  70  90 CALM      30.02F
CHARLES CITY   CLOUDY    73  70  88 N5        30.02S FOG
OELWEIN        PTSUNNY   75  75 100 W6        30.03R
$$

...ELSEWHERE IN IOWA...


CITY           SKY/WX    TMP DP  RH WIND       PRES   REMARKS
DES MOINES     CLOUDY    77  72  84 S9        30.01F
IOWA CITY      PTSUNNY   76  73  91 S5        30.02F
FORT DODGE     CLOUDY    72  68  88 CALM      30.01S
MARSHALLTOWN   PTSUNNY   75  71  87 S3        30.00S
CEDAR RAPIDS   CLOUDY    74  72  93 SW5       30.00S
$$

...NORTHERN ILLINOIS...


CITY           SKY/WX    TMP DP  RH WIND       PRES   REMARKS
CHICAGO-OHARE  LGT RAIN  71  67  87 S7        30.05R FOG
DUPAGE         CLOUDY    72  69  90 SE7       30.02F FOG
CHICAGO-MIDWAY TSTM      72  70  93 SW18G24   30.06R VSB 1/2
MOLINE         CLOUDY    77  71  82 W9        30.02R
ROCKFORD       LGT RAIN  72  68  87 E9        29.97F
STERLING       CLOUDY    73  70  88 SE6       29.99S
PEORIA         CLOUDY    81  69  67 CALM      30.06S
$$

NOTE: "FAIR" INDICATES FEW OR NO CLOUDS BELOW 12,000 FEET WITH NO
SIGNIFICANT WEATHER AND/OR OBSTRUCTIONS TO VISIBILITY. WIND
SPEEDS ARE IN MILES-PER-HOUR.



USA.gov is the U.S. government's official web portal to all federal, state and local government web resources and services.